Year,Month,Day,Hour,Minute,Value (Times are PST for temperature in C)
2012,05,26,00,00,16.10
2012,05,26,00,01,16.10
2012,05,26,00,02,16.10
2012,05,26,00,03,16.10
2012,05,26,00,04,16.10
2012,05,26,00,05,16.10
2012,05,26,00,06,16.10
2012,05,26,00,07,16.10
2012,05,26,00,08,16.10
2012,05,26,00,09,16.10
2012,05,26,00,10,16.20
2012,05,26,00,11,16.20
2012,05,26,00,12,16.20
2012,05,26,00,13,16.20
2012,05,26,00,14,16.20
2012,05,26,00,15,16.20
2012,05,26,00,16,16.20
2012,05,26,00,17,16.30
2012,05,26,00,18,16.30
2012,05,26,00,19,16.30
2012,05,26,00,20,16.30
2012,05,26,00,21,16.30
2012,05,26,00,22,16.30
2012,05,26,00,23,16.30
2012,05,26,00,24,16.30
2012,05,26,00,25,16.30
2012,05,26,00,26,16.30
2012,05,26,00,27,16.30
2012,05,26,00,28,16.30
2012,05,26,00,29,16.30
2012,05,26,00,30,16.30
2012,05,26,00,31,16.40
2012,05,26,00,32,16.40
2012,05,26,00,33,16.40
2012,05,26,00,34,16.40
2012,05,26,00,35,16.40
2012,05,26,00,36,16.40
2012,05,26,00,37,16.50
2012,05,26,00,38,16.60
2012,05,26,00,39,16.60
2012,05,26,00,40,16.60
2012,05,26,00,41,16.60
2012,05,26,00,42,16.60
2012,05,26,00,43,16.70
2012,05,26,00,44,16.70
2012,05,26,00,45,16.70
2012,05,26,00,46,16.70
2012,05,26,00,47,16.60
2012,05,26,00,48,16.60
2012,05,26,00,49,16.50
2012,05,26,00,50,16.40
2012,05,26,00,51,16.40
2012,05,26,00,52,16.40
2012,05,26,00,53,16.40
2012,05,26,00,54,16.40
2012,05,26,00,55,16.40
2012,05,26,00,56,16.60
2012,05,26,00,57,16.60
2012,05,26,00,58,16.60
2012,05,26,00,59,16.70
2012,05,26,01,00,16.70
2012,05,26,01,01,16.70
2012,05,26,01,02,16.70
2012,05,26,01,03,16.70
2012,05,26,01,04,16.70
2012,05,26,01,05,16.70
2012,05,26,01,06,16.70
2012,05,26,01,07,16.70
2012,05,26,01,08,16.80
2012,05,26,01,09,16.90
2012,05,26,01,10,16.90
2012,05,26,01,11,16.90
2012,05,26,01,12,17.00
2012,05,26,01,13,17.00
2012,05,26,01,14,17.10
2012,05,26,01,15,17.10
2012,05,26,01,16,17.10
2012,05,26,01,17,17.20
2012,05,26,01,18,17.20
2012,05,26,01,19,17.30
2012,05,26,01,20,17.30
2012,05,26,01,21,17.30
2012,05,26,01,22,17.30
2012,05,26,01,23,17.30
2012,05,26,01,24,17.30
2012,05,26,01,25,17.30
2012,05,26,01,26,17.40
2012,05,26,01,27,17.40
2012,05,26,01,28,17.50
2012,05,26,01,29,17.50
2012,05,26,01,30,17.50
2012,05,26,01,31,17.50
2012,05,26,01,32,17.60
2012,05,26,01,33,17.60
2012,05,26,01,34,17.60
2012,05,26,01,35,17.60
2012,05,26,01,36,17.50
2012,05,26,01,37,17.50
2012,05,26,01,38,17.50
2012,05,26,01,39,17.50
2012,05,26,01,40,17.40
2012,05,26,01,41,17.40
2012,05,26,01,42,17.40
2012,05,26,01,43,17.40
2012,05,26,01,44,17.30
2012,05,26,01,45,17.30
2012,05,26,01,46,17.30
2012,05,26,01,47,17.30
2012,05,26,01,48,17.30
2012,05,26,01,49,17.30
2012,05,26,01,50,17.30
2012,05,26,01,51,17.30
2012,05,26,01,52,17.30
2012,05,26,01,53,17.30
2012,05,26,01,54,17.30
2012,05,26,01,55,17.30
2012,05,26,01,56,17.30
2012,05,26,01,57,17.30
2012,05,26,01,58,17.30
2012,05,26,01,59,17.30
2012,05,26,02,00,17.30
2012,05,26,02,01,17.30
2012,05,26,02,02,17.30
2012,05,26,02,03,17.20
2012,05,26,02,04,17.20
2012,05,26,02,05,17.20
2012,05,26,02,06,17.10
2012,05,26,02,07,17.10
2012,05,26,02,08,17.10
2012,05,26,02,09,17.10
2012,05,26,02,10,17.00
2012,05,26,02,11,17.00
2012,05,26,02,12,17.00
2012,05,26,02,13,17.00
2012,05,26,02,14,17.00
2012,05,26,02,15,17.00
2012,05,26,02,16,17.00
2012,05,26,02,17,17.00
2012,05,26,02,18,17.00
2012,05,26,02,19,17.00
2012,05,26,02,20,17.00
2012,05,26,02,21,17.00
2012,05,26,02,22,17.00
2012,05,26,02,23,17.00
2012,05,26,02,24,17.00
2012,05,26,02,25,16.90
2012,05,26,02,26,16.90
2012,05,26,02,27,16.90
2012,05,26,02,28,16.80
2012,05,26,02,29,16.80
2012,05,26,02,30,16.70
2012,05,26,02,31,16.70
2012,05,26,02,32,16.70
2012,05,26,02,33,16.70
2012,05,26,02,34,16.70
2012,05,26,02,35,16.60
2012,05,26,02,36,16.60
2012,05,26,02,37,16.60
2012,05,26,02,38,16.50
2012,05,26,02,39,16.40
2012,05,26,02,40,16.40
2012,05,26,02,41,16.40
2012,05,26,02,42,16.40
2012,05,26,02,43,16.40
2012,05,26,02,44,16.40
2012,05,26,02,45,16.40
2012,05,26,02,46,16.40
2012,05,26,02,47,16.40
2012,05,26,02,48,16.40
2012,05,26,02,49,16.30
2012,05,26,02,50,16.30
2012,05,26,02,51,16.30
2012,05,26,02,52,16.30
2012,05,26,02,53,16.30
2012,05,26,02,54,16.20
2012,05,26,02,55,16.20
2012,05,26,02,56,16.30
2012,05,26,02,57,16.30
2012,05,26,02,58,16.20
2012,05,26,02,59,16.20
2012,05,26,03,00,16.20
2012,05,26,03,01,16.20
2012,05,26,03,02,16.10
2012,05,26,03,03,16.10
2012,05,26,03,04,16.10
2012,05,26,03,05,16.00
2012,05,26,03,06,15.90
2012,05,26,03,07,15.90
2012,05,26,03,08,15.90
2012,05,26,03,09,15.80
2012,05,26,03,10,15.80
2012,05,26,03,11,15.80
2012,05,26,03,12,15.80
2012,05,26,03,13,15.80
2012,05,26,03,14,15.80
2012,05,26,03,15,15.80
2012,05,26,03,16,15.80
2012,05,26,03,17,15.80
2012,05,26,03,18,15.80
2012,05,26,03,19,15.80
2012,05,26,03,20,15.70
2012,05,26,03,21,15.70
2012,05,26,03,22,15.70
2012,05,26,03,23,15.60
2012,05,26,03,24,15.60
2012,05,26,03,25,15.50
2012,05,26,03,26,15.50
2012,05,26,03,27,15.40
2012,05,26,03,28,15.40
2012,05,26,03,29,15.40
2012,05,26,03,30,15.40
2012,05,26,03,31,15.40
2012,05,26,03,32,15.40
2012,05,26,03,33,15.40
2012,05,26,03,34,15.40
2012,05,26,03,35,15.40
2012,05,26,03,36,15.40
2012,05,26,03,37,15.40
2012,05,26,03,38,15.40
2012,05,26,03,39,15.50
2012,05,26,03,40,15.50
2012,05,26,03,41,15.50
2012,05,26,03,42,15.50
2012,05,26,03,43,15.50
2012,05,26,03,44,15.50
2012,05,26,03,45,15.50
2012,05,26,03,46,15.50
2012,05,26,03,47,15.50
2012,05,26,03,48,15.60
2012,05,26,03,49,15.60
2012,05,26,03,50,15.60
2012,05,26,03,51,15.60
2012,05,26,03,52,15.60
2012,05,26,03,53,15.60
2012,05,26,03,54,15.60
2012,05,26,03,55,15.50
2012,05,26,03,56,15.50
2012,05,26,03,57,15.50
2012,05,26,03,58,15.40
2012,05,26,03,59,15.40
2012,05,26,04,00,15.40
2012,05,26,04,01,15.30
2012,05,26,04,02,15.30
2012,05,26,04,03,15.30
2012,05,26,04,04,15.20
2012,05,26,04,05,15.20
2012,05,26,04,06,15.20
2012,05,26,04,07,15.20
2012,05,26,04,08,15.20
2012,05,26,04,09,15.20
2012,05,26,04,10,15.20
2012,05,26,04,11,15.20
2012,05,26,04,12,15.20
2012,05,26,04,13,15.20
2012,05,26,04,14,15.20
2012,05,26,04,15,15.10
2012,05,26,04,16,15.10
2012,05,26,04,17,15.10
2012,05,26,04,18,15.00
2012,05,26,04,19,15.00
2012,05,26,04,20,14.90
2012,05,26,04,21,14.90
2012,05,26,04,22,14.90
2012,05,26,04,23,14.90
2012,05,26,04,24,14.80
2012,05,26,04,25,14.80
2012,05,26,04,26,14.80
2012,05,26,04,27,14.80
2012,05,26,04,28,14.80
2012,05,26,04,29,14.80
2012,05,26,04,30,14.70
2012,05,26,04,31,14.60
2012,05,26,04,32,14.50
2012,05,26,04,33,14.50
2012,05,26,04,34,14.40
2012,05,26,04,35,14.30
2012,05,26,04,36,14.30
2012,05,26,04,37,14.20
2012,05,26,04,38,14.20
2012,05,26,04,39,14.20
2012,05,26,04,40,14.20
2012,05,26,04,41,14.10
2012,05,26,04,42,14.10
2012,05,26,04,43,14.00
2012,05,26,04,44,14.00
2012,05,26,04,45,14.00
2012,05,26,04,46,13.90
2012,05,26,04,47,13.90
2012,05,26,04,48,13.90
2012,05,26,04,49,13.80
2012,05,26,04,50,13.80
2012,05,26,04,51,13.80
2012,05,26,04,52,13.70
2012,05,26,04,53,13.70
2012,05,26,04,54,13.70
2012,05,26,04,55,13.60
2012,05,26,04,56,13.50
2012,05,26,04,57,13.50
2012,05,26,04,58,13.40
2012,05,26,04,59,13.40
2012,05,26,05,00,13.30
2012,05,26,05,01,13.30
2012,05,26,05,02,13.30
2012,05,26,05,03,13.30
2012,05,26,05,04,13.20
2012,05,26,05,05,13.20
2012,05,26,05,06,13.20
2012,05,26,05,07,13.20
2012,05,26,05,08,13.10
2012,05,26,05,09,13.10
2012,05,26,05,10,13.10
2012,05,26,05,11,13.00
2012,05,26,05,12,13.00
2012,05,26,05,13,13.00
2012,05,26,05,14,13.00
2012,05,26,05,15,13.00
2012,05,26,05,16,13.00
2012,05,26,05,17,13.00
2012,05,26,05,18,13.00
2012,05,26,05,19,13.00
2012,05,26,05,20,13.00
2012,05,26,05,21,13.00
2012,05,26,05,22,13.00
2012,05,26,05,23,13.00
2012,05,26,05,24,13.00
2012,05,26,05,25,13.00
2012,05,26,05,26,13.10
2012,05,26,05,27,13.10
2012,05,26,05,28,13.10
2012,05,26,05,29,13.10
2012,05,26,05,30,13.10
2012,05,26,05,31,13.10
2012,05,26,05,32,13.00
2012,05,26,05,33,13.00
2012,05,26,05,34,13.00
2012,05,26,05,35,13.00
2012,05,26,05,36,13.00
2012,05,26,05,37,13.00
2012,05,26,05,38,13.00
2012,05,26,05,39,13.00
2012,05,26,05,40,13.00
2012,05,26,05,41,13.00
2012,05,26,05,42,12.90
2012,05,26,05,43,12.90
2012,05,26,05,44,12.90
2012,05,26,05,45,12.90
2012,05,26,05,46,12.80
2012,05,26,05,47,12.80
2012,05,26,05,48,12.80
2012,05,26,05,49,12.80
2012,05,26,05,50,12.80
2012,05,26,05,51,12.80
2012,05,26,05,52,12.70
2012,05,26,05,53,12.80
2012,05,26,05,54,12.80
2012,05,26,05,55,12.80
2012,05,26,05,56,12.80
2012,05,26,05,57,12.80
2012,05,26,05,58,12.90
2012,05,26,05,59,12.90
2012,05,26,06,00,12.90
2012,05,26,06,01,13.00
2012,05,26,06,02,13.00
2012,05,26,06,03,13.00
2012,05,26,06,04,13.00
2012,05,26,06,05,13.00
2012,05,26,06,06,13.00
2012,05,26,06,07,13.00
2012,05,26,06,08,13.00
2012,05,26,06,09,13.00
2012,05,26,06,10,13.00
2012,05,26,06,11,13.00
2012,05,26,06,12,13.00
2012,05,26,06,13,13.00
2012,05,26,06,14,13.00
2012,05,26,06,15,13.00
2012,05,26,06,16,13.00
2012,05,26,06,17,13.00
2012,05,26,06,18,13.00
2012,05,26,06,19,13.00
2012,05,26,06,20,13.00
2012,05,26,06,21,13.10
2012,05,26,06,22,13.10
2012,05,26,06,23,13.10
2012,05,26,06,24,13.20
2012,05,26,06,25,13.30
2012,05,26,06,26,13.30
2012,05,26,06,27,13.40
2012,05,26,06,28,13.50
2012,05,26,06,29,13.50
2012,05,26,06,30,13.60
2012,05,26,06,31,13.70
2012,05,26,06,32,13.70
2012,05,26,06,33,13.90
2012,05,26,06,34,13.90
2012,05,26,06,35,14.00
2012,05,26,06,36,14.10
2012,05,26,06,37,14.10
2012,05,26,06,38,14.20
2012,05,26,06,39,14.20
2012,05,26,06,40,14.30
2012,05,26,06,41,14.40
2012,05,26,06,42,14.40
2012,05,26,06,43,14.40
2012,05,26,06,44,14.50
2012,05,26,06,45,14.50
2012,05,26,06,46,14.60
2012,05,26,06,47,14.60
2012,05,26,06,48,14.70
2012,05,26,06,49,14.80
2012,05,26,06,50,14.80
2012,05,26,06,51,14.90
2012,05,26,06,52,15.00
2012,05,26,06,53,15.00
2012,05,26,06,54,15.10
2012,05,26,06,55,15.20
2012,05,26,06,56,15.20
2012,05,26,06,57,15.30
2012,05,26,06,58,15.30
2012,05,26,06,59,15.30
2012,05,26,07,00,15.30
2012,05,26,07,01,15.30
2012,05,26,07,02,15.30
2012,05,26,07,03,15.30
2012,05,26,07,04,15.20
2012,05,26,07,05,15.20
2012,05,26,07,06,15.30
2012,05,26,07,07,15.30
2012,05,26,07,08,15.30
2012,05,26,07,09,15.30
2012,05,26,07,10,15.30
2012,05,26,07,11,15.30
2012,05,26,07,12,15.30
2012,05,26,07,13,15.40
2012,05,26,07,14,15.40
2012,05,26,07,15,15.40
2012,05,26,07,16,15.50
2012,05,26,07,17,15.50
2012,05,26,07,18,15.50
2012,05,26,07,19,15.50
2012,05,26,07,20,15.50
2012,05,26,07,21,15.60
2012,05,26,07,22,15.60
2012,05,26,07,23,15.60
2012,05,26,07,24,15.70
2012,05,26,07,25,15.70
2012,05,26,07,26,15.60
2012,05,26,07,27,15.60
2012,05,26,07,28,15.60
2012,05,26,07,29,15.60
2012,05,26,07,30,15.60
2012,05,26,07,31,15.60
2012,05,26,07,32,15.70
2012,05,26,07,33,15.70
2012,05,26,07,34,15.70
2012,05,26,07,35,15.80
2012,05,26,07,36,15.80
2012,05,26,07,37,15.80
2012,05,26,07,38,15.80
2012,05,26,07,39,15.80
2012,05,26,07,40,15.80
2012,05,26,07,41,15.80
2012,05,26,07,42,15.80
2012,05,26,07,43,15.80
2012,05,26,07,44,15.80
2012,05,26,07,45,15.80
2012,05,26,07,46,15.80
2012,05,26,07,47,15.90
2012,05,26,07,48,15.90
2012,05,26,07,49,16.00
2012,05,26,07,50,16.10
2012,05,26,07,51,16.20
2012,05,26,07,52,16.30
2012,05,26,07,53,16.40
2012,05,26,07,54,16.40
2012,05,26,07,55,16.40
2012,05,26,07,56,16.40
2012,05,26,07,57,16.40
2012,05,26,07,58,16.40
2012,05,26,07,59,16.40
2012,05,26,08,00,16.40
2012,05,26,08,01,16.40
2012,05,26,08,02,16.30
2012,05,26,08,03,16.30
2012,05,26,08,04,16.30
2012,05,26,08,05,16.30
2012,05,26,08,06,16.30
2012,05,26,08,07,16.30
2012,05,26,08,08,16.30
2012,05,26,08,09,16.30
2012,05,26,08,10,16.30
2012,05,26,08,11,16.30
2012,05,26,08,12,16.40
2012,05,26,08,13,16.40
2012,05,26,08,14,16.40
2012,05,26,08,15,16.40
2012,05,26,08,16,16.40
2012,05,26,08,17,16.40
2012,05,26,08,18,16.50
2012,05,26,08,19,16.60
2012,05,26,08,20,16.60
2012,05,26,08,21,16.50
2012,05,26,08,22,16.40
2012,05,26,08,23,16.40
2012,05,26,08,24,16.40
2012,05,26,08,25,16.40
2012,05,26,08,26,16.40
2012,05,26,08,27,16.40
2012,05,26,08,28,16.30
2012,05,26,08,29,16.30
2012,05,26,08,30,16.30
2012,05,26,08,31,16.30
2012,05,26,08,32,16.30
2012,05,26,08,33,16.30
2012,05,26,08,34,16.40
2012,05,26,08,35,16.40
2012,05,26,08,36,16.50
2012,05,26,08,37,16.60
2012,05,26,08,38,16.60
2012,05,26,08,39,16.70
2012,05,26,08,40,16.70
2012,05,26,08,41,16.70
2012,05,26,08,42,16.70
2012,05,26,08,43,16.70
2012,05,26,08,44,16.70
2012,05,26,08,45,16.70
2012,05,26,08,46,16.70
2012,05,26,08,47,16.70
2012,05,26,08,48,16.80
2012,05,26,08,49,16.80
2012,05,26,08,50,16.70
2012,05,26,08,51,16.70
2012,05,26,08,52,16.80
2012,05,26,08,53,16.80
2012,05,26,08,54,16.80
2012,05,26,08,55,16.80
2012,05,26,08,56,16.80
2012,05,26,08,57,16.80
2012,05,26,08,58,16.80
2012,05,26,08,59,16.90
2012,05,26,09,00,16.90
2012,05,26,09,01,17.00
2012,05,26,09,02,17.00
2012,05,26,09,03,17.00
2012,05,26,09,04,17.10
2012,05,26,09,05,17.00
2012,05,26,09,06,16.90
2012,05,26,09,07,16.90
2012,05,26,09,08,16.90
2012,05,26,09,09,16.90
2012,05,26,09,10,16.90
2012,05,26,09,11,16.90
2012,05,26,09,12,16.90
2012,05,26,09,13,16.90
2012,05,26,09,14,17.00
2012,05,26,09,15,17.00
2012,05,26,09,16,17.00
2012,05,26,09,17,17.00
2012,05,26,09,18,17.10
2012,05,26,09,19,17.00
2012,05,26,09,20,17.00
2012,05,26,09,21,17.00
2012,05,26,09,22,17.10
2012,05,26,09,23,17.10
2012,05,26,09,24,17.20
2012,05,26,09,25,17.20
2012,05,26,09,26,17.20
2012,05,26,09,27,17.20
2012,05,26,09,28,17.30
2012,05,26,09,29,17.30
2012,05,26,09,30,17.30
2012,05,26,09,31,17.30
2012,05,26,09,32,17.40
2012,05,26,09,33,17.40
2012,05,26,09,34,17.40
2012,05,26,09,35,17.30
2012,05,26,09,36,17.30
2012,05,26,09,37,17.10
2012,05,26,09,38,17.10
2012,05,26,09,39,17.10
2012,05,26,09,40,17.10
2012,05,26,09,41,17.20
2012,05,26,09,42,17.20
2012,05,26,09,43,17.20
2012,05,26,09,44,17.20
2012,05,26,09,45,17.20
2012,05,26,09,46,17.30
2012,05,26,09,47,17.30
2012,05,26,09,48,17.40
2012,05,26,09,49,17.50
2012,05,26,09,50,17.50
2012,05,26,09,51,17.50
2012,05,26,09,52,17.60
2012,05,26,09,53,17.70
2012,05,26,09,54,17.70
2012,05,26,09,55,17.70
2012,05,26,09,56,17.70
2012,05,26,09,57,17.70
2012,05,26,09,58,17.80
2012,05,26,09,59,17.80
2012,05,26,10,00,17.80
2012,05,26,10,01,17.70
2012,05,26,10,02,17.70
2012,05,26,10,03,17.60
2012,05,26,10,04,17.50
2012,05,26,10,05,17.40
2012,05,26,10,06,17.40
2012,05,26,10,07,17.40
2012,05,26,10,08,17.40
2012,05,26,10,09,17.50
2012,05,26,10,10,17.60
2012,05,26,10,11,17.70
2012,05,26,10,12,17.80
2012,05,26,10,13,17.80
2012,05,26,10,14,17.70
2012,05,26,10,15,17.60
2012,05,26,10,16,17.60
2012,05,26,10,17,17.70
2012,05,26,10,18,17.80
2012,05,26,10,19,17.80
2012,05,26,10,20,17.90
2012,05,26,10,21,18.00
2012,05,26,10,22,18.10
2012,05,26,10,23,18.20
2012,05,26,10,24,18.30
2012,05,26,10,25,18.30
2012,05,26,10,26,18.40
2012,05,26,10,27,18.30
2012,05,26,10,28,18.30
2012,05,26,10,29,18.30
2012,05,26,10,30,18.40
2012,05,26,10,31,18.30
2012,05,26,10,32,18.30
2012,05,26,10,33,18.20
2012,05,26,10,34,18.20
2012,05,26,10,35,18.20
2012,05,26,10,36,18.20
2012,05,26,10,37,18.20
2012,05,26,10,38,18.20
2012,05,26,10,39,18.20
2012,05,26,10,40,18.20
2012,05,26,10,41,18.30
2012,05,26,10,42,18.40
2012,05,26,10,43,18.40
2012,05,26,10,44,18.40
2012,05,26,10,45,18.50
2012,05,26,10,46,18.50
2012,05,26,10,47,18.50
2012,05,26,10,48,18.50
2012,05,26,10,49,18.50
2012,05,26,10,50,18.40
2012,05,26,10,51,18.40
2012,05,26,10,52,18.20
2012,05,26,10,53,18.20
2012,05,26,10,54,18.20
2012,05,26,10,55,18.20
2012,05,26,10,56,18.20
2012,05,26,10,57,18.20
2012,05,26,10,58,18.30
2012,05,26,10,59,18.30
2012,05,26,11,00,18.30
2012,05,26,11,01,18.20
2012,05,26,11,02,18.20
2012,05,26,11,03,18.20
2012,05,26,11,04,18.10
2012,05,26,11,05,18.10
2012,05,26,11,06,18.10
2012,05,26,11,07,18.20
2012,05,26,11,08,18.40
2012,05,26,11,09,18.50
2012,05,26,11,10,18.50
2012,05,26,11,11,18.60
2012,05,26,11,12,18.80
2012,05,26,11,13,18.80
2012,05,26,11,14,18.90
2012,05,26,11,15,18.90
2012,05,26,11,16,18.90
2012,05,26,11,17,18.80
2012,05,26,11,18,18.80
2012,05,26,11,19,18.80
2012,05,26,11,20,18.80
2012,05,26,11,21,18.90
2012,05,26,11,22,19.00
2012,05,26,11,23,19.10
2012,05,26,11,24,19.20
2012,05,26,11,25,19.30
2012,05,26,11,26,19.40
2012,05,26,11,27,19.40
2012,05,26,11,28,19.30
2012,05,26,11,29,19.30
2012,05,26,11,30,19.30
2012,05,26,11,31,19.40
2012,05,26,11,32,19.50
2012,05,26,11,33,19.50
2012,05,26,11,34,19.50
2012,05,26,11,35,19.60
2012,05,26,11,36,19.60
2012,05,26,11,37,19.60
2012,05,26,11,38,19.60
2012,05,26,11,39,19.60
2012,05,26,11,40,19.70
2012,05,26,11,41,19.80
2012,05,26,11,42,19.90
2012,05,26,11,43,20.00
2012,05,26,11,44,20.10
2012,05,26,11,45,20.20
2012,05,26,11,46,20.20
2012,05,26,11,47,20.20
2012,05,26,11,48,20.00
2012,05,26,11,49,19.90
2012,05,26,11,50,19.90
2012,05,26,11,51,19.90
2012,05,26,11,52,19.90
2012,05,26,11,53,19.90
2012,05,26,11,54,19.70
2012,05,26,11,55,19.60
2012,05,26,11,56,19.60
2012,05,26,11,57,19.60
2012,05,26,11,58,19.60
2012,05,26,11,59,19.60
2012,05,26,12,00,19.70
2012,05,26,12,01,19.70
2012,05,26,12,02,19.70
2012,05,26,12,03,19.70
2012,05,26,12,04,19.70
2012,05,26,12,05,19.80
2012,05,26,12,06,19.90
2012,05,26,12,07,19.90
2012,05,26,12,08,20.10
2012,05,26,12,09,20.10
2012,05,26,12,10,20.10
2012,05,26,12,11,20.10
2012,05,26,12,12,20.00
2012,05,26,12,13,19.90
2012,05,26,12,14,19.90
2012,05,26,12,15,19.80
2012,05,26,12,16,19.80
2012,05,26,12,17,19.80
2012,05,26,12,18,19.80
2012,05,26,12,19,19.70
2012,05,26,12,20,19.80
2012,05,26,12,21,19.70
2012,05,26,12,22,19.70
2012,05,26,12,23,19.70
2012,05,26,12,24,19.60
2012,05,26,12,25,19.70
2012,05,26,12,26,19.70
2012,05,26,12,27,19.70
2012,05,26,12,28,19.70
2012,05,26,12,29,19.70
2012,05,26,12,30,19.90
2012,05,26,12,31,20.00
2012,05,26,12,32,20.20
2012,05,26,12,33,20.30
2012,05,26,12,34,20.40
2012,05,26,12,35,20.50
2012,05,26,12,36,20.50
2012,05,26,12,37,20.60
2012,05,26,12,38,20.60
2012,05,26,12,39,20.70
2012,05,26,12,40,20.70
2012,05,26,12,41,20.90
2012,05,26,12,42,21.00
2012,05,26,12,43,21.00
2012,05,26,12,44,21.10
2012,05,26,12,45,21.20
2012,05,26,12,46,21.30
2012,05,26,12,47,21.30
2012,05,26,12,48,21.20
2012,05,26,12,49,21.20
2012,05,26,12,50,21.20
2012,05,26,12,51,21.10
2012,05,26,12,52,21.00
2012,05,26,12,53,21.00
2012,05,26,12,54,20.90
2012,05,26,12,55,20.90
2012,05,26,12,56,20.90
2012,05,26,12,57,20.90
2012,05,26,12,58,20.90
2012,05,26,12,59,20.90
2012,05,26,13,00,21.00
2012,05,26,13,01,21.00
2012,05,26,13,02,21.00
2012,05,26,13,03,21.00
2012,05,26,13,04,21.10
2012,05,26,13,05,21.10
2012,05,26,13,06,21.10
2012,05,26,13,07,21.30
2012,05,26,13,08,21.30
2012,05,26,13,09,21.40
2012,05,26,13,10,21.40
2012,05,26,13,11,21.40
2012,05,26,13,12,21.30
2012,05,26,13,13,21.30
2012,05,26,13,14,21.40
2012,05,26,13,15,21.40
2012,05,26,13,16,21.40
2012,05,26,13,17,21.40
2012,05,26,13,18,21.30
2012,05,26,13,19,21.30
2012,05,26,13,20,21.30
2012,05,26,13,21,21.30
2012,05,26,13,22,21.40
2012,05,26,13,23,21.50
2012,05,26,13,24,21.60
2012,05,26,13,25,21.60
2012,05,26,13,26,21.70
2012,05,26,13,27,21.80
2012,05,26,13,28,22.00
2012,05,26,13,29,22.00
2012,05,26,13,30,22.10
2012,05,26,13,31,22.10
2012,05,26,13,32,22.20
2012,05,26,13,33,22.10
2012,05,26,13,34,22.10
2012,05,26,13,35,22.10
2012,05,26,13,36,22.10
2012,05,26,13,37,22.10
2012,05,26,13,38,22.10
2012,05,26,13,39,22.10
2012,05,26,13,40,22.20
2012,05,26,13,41,22.30
2012,05,26,13,42,22.30
2012,05,26,13,43,22.30
2012,05,26,13,44,22.30
2012,05,26,13,45,22.30
2012,05,26,13,46,22.30
2012,05,26,13,47,22.30
2012,05,26,13,48,22.30
2012,05,26,13,49,22.40
2012,05,26,13,50,22.40
2012,05,26,13,51,22.40
2012,05,26,13,52,22.40
2012,05,26,13,53,22.40
2012,05,26,13,54,22.40
2012,05,26,13,55,22.40
2012,05,26,13,56,22.50
2012,05,26,13,57,22.50
2012,05,26,13,58,22.50
2012,05,26,13,59,22.50
2012,05,26,14,00,22.50
2012,05,26,14,01,22.70
2012,05,26,14,02,22.80
2012,05,26,14,03,22.90
2012,05,26,14,04,23.10
2012,05,26,14,05,23.20
2012,05,26,14,06,23.30
2012,05,26,14,07,23.30
2012,05,26,14,08,23.30
2012,05,26,14,09,23.30
2012,05,26,14,10,23.40
2012,05,26,14,11,23.30
2012,05,26,14,12,23.30
2012,05,26,14,13,23.20
2012,05,26,14,14,23.20
2012,05,26,14,15,23.20
2012,05,26,14,16,23.10
2012,05,26,14,17,23.00
2012,05,26,14,18,22.90
2012,05,26,14,19,22.90
2012,05,26,14,20,22.90
2012,05,26,14,21,22.90
2012,05,26,14,22,22.80
2012,05,26,14,23,22.80
2012,05,26,14,24,22.70
2012,05,26,14,25,22.70
2012,05,26,14,26,22.70
2012,05,26,14,27,22.70
2012,05,26,14,28,22.70
2012,05,26,14,29,22.70
2012,05,26,14,30,22.80
2012,05,26,14,31,22.90
2012,05,26,14,32,23.00
2012,05,26,14,33,23.20
2012,05,26,14,34,23.30
2012,05,26,14,35,23.40
2012,05,26,14,36,23.40
2012,05,26,14,37,23.40
2012,05,26,14,38,23.30
2012,05,26,14,39,23.40
2012,05,26,14,40,23.40
2012,05,26,14,41,23.40
2012,05,26,14,42,23.40
2012,05,26,14,43,23.60
2012,05,26,14,44,23.60
2012,05,26,14,45,23.70
2012,05,26,14,46,24.00
2012,05,26,14,47,24.10
2012,05,26,14,48,24.20
2012,05,26,14,49,24.20
2012,05,26,14,50,24.20
2012,05,26,14,51,24.30
2012,05,26,14,52,24.30
2012,05,26,14,53,24.30
2012,05,26,14,54,24.30
2012,05,26,14,55,24.30
2012,05,26,14,56,24.30
2012,05,26,14,57,24.30
2012,05,26,14,58,24.30
2012,05,26,14,59,24.40
2012,05,26,15,00,24.40
2012,05,26,15,01,24.50
2012,05,26,15,02,24.40
2012,05,26,15,03,24.40
2012,05,26,15,04,24.50
2012,05,26,15,05,24.50
2012,05,26,15,06,24.50
2012,05,26,15,07,24.60
2012,05,26,15,08,24.60
2012,05,26,15,09,24.70
2012,05,26,15,10,24.70
2012,05,26,15,11,24.80
2012,05,26,15,12,24.90
2012,05,26,15,13,24.90
2012,05,26,15,14,25.00
2012,05,26,15,15,25.10
2012,05,26,15,16,25.30
2012,05,26,15,17,25.40
2012,05,26,15,18,25.40
2012,05,26,15,19,25.50
2012,05,26,15,20,25.50
2012,05,26,15,21,25.40
2012,05,26,15,22,25.40
2012,05,26,15,23,25.30
2012,05,26,15,24,25.40
2012,05,26,15,25,25.50
2012,05,26,15,26,25.50
2012,05,26,15,27,25.50
2012,05,26,15,28,25.50
2012,05,26,15,29,25.60
2012,05,26,15,30,25.60
2012,05,26,15,31,25.40
2012,05,26,15,32,25.00
2012,05,26,15,33,24.70
2012,05,26,15,34,24.40
2012,05,26,15,35,24.20
2012,05,26,15,36,24.10
2012,05,26,15,37,24.20
2012,05,26,15,38,24.30
2012,05,26,15,39,24.40
2012,05,26,15,40,24.50
2012,05,26,15,41,24.60
2012,05,26,15,42,24.70
2012,05,26,15,43,24.70
2012,05,26,15,44,24.60
2012,05,26,15,45,24.50
2012,05,26,15,46,24.50
2012,05,26,15,47,24.50
2012,05,26,15,48,24.50
2012,05,26,15,49,24.50
2012,05,26,15,50,24.50
2012,05,26,15,51,24.40
2012,05,26,15,52,24.40
2012,05,26,15,53,24.40
2012,05,26,15,54,24.40
2012,05,26,15,55,24.30
2012,05,26,15,56,24.30
2012,05,26,15,57,24.40
2012,05,26,15,58,24.50
2012,05,26,15,59,24.50
2012,05,26,16,00,24.40
2012,05,26,16,01,24.20
2012,05,26,16,02,24.20
2012,05,26,16,03,24.10
2012,05,26,16,04,24.10
2012,05,26,16,05,24.10
2012,05,26,16,06,24.10
2012,05,26,16,07,24.20
2012,05,26,16,08,24.30
2012,05,26,16,09,24.40
2012,05,26,16,10,24.50
2012,05,26,16,11,24.50
2012,05,26,16,12,24.50
2012,05,26,16,13,24.40
2012,05,26,16,14,24.50
2012,05,26,16,15,24.50
2012,05,26,16,16,24.70
2012,05,26,16,17,24.70
2012,05,26,16,18,24.70
2012,05,26,16,19,24.70
2012,05,26,16,20,24.70
2012,05,26,16,21,24.70
2012,05,26,16,22,24.70
2012,05,26,16,23,24.80
2012,05,26,16,24,25.00
2012,05,26,16,25,25.10
2012,05,26,16,26,25.10
2012,05,26,16,27,24.90
2012,05,26,16,28,24.70
2012,05,26,16,29,24.50
2012,05,26,16,30,24.30
2012,05,26,16,31,24.10
2012,05,26,16,32,24.00
2012,05,26,16,33,23.90
2012,05,26,16,34,23.90
2012,05,26,16,35,23.90
2012,05,26,16,36,23.90
2012,05,26,16,37,23.90
2012,05,26,16,38,23.90
2012,05,26,16,39,23.90
2012,05,26,16,40,23.80
2012,05,26,16,41,23.70
2012,05,26,16,42,23.50
2012,05,26,16,43,23.40
2012,05,26,16,44,23.40
2012,05,26,16,45,23.40
2012,05,26,16,46,23.40
2012,05,26,16,47,23.30
2012,05,26,16,48,23.40
2012,05,26,16,49,23.40
2012,05,26,16,50,23.60
2012,05,26,16,51,23.60
2012,05,26,16,52,23.60
2012,05,26,16,53,23.60
2012,05,26,16,54,23.50
2012,05,26,16,55,23.50
2012,05,26,16,56,23.60
2012,05,26,16,57,23.60
2012,05,26,16,58,23.60
2012,05,26,16,59,23.60
2012,05,26,17,00,23.60
2012,05,26,17,01,23.70
2012,05,26,17,02,23.70
2012,05,26,17,03,23.60
2012,05,26,17,04,23.60
2012,05,26,17,05,23.60
2012,05,26,17,06,23.50
2012,05,26,17,07,23.40
2012,05,26,17,08,23.40
2012,05,26,17,09,23.40
2012,05,26,17,10,23.30
2012,05,26,17,11,23.30
2012,05,26,17,12,23.30
2012,05,26,17,13,23.30
2012,05,26,17,14,23.40
2012,05,26,17,15,23.40
2012,05,26,17,16,23.60
2012,05,26,17,17,23.70
2012,05,26,17,18,23.70
2012,05,26,17,19,23.80